Weather History for Fort Bragg, NC

Change the Weather History Date:

Monday, January 13, 2014

  Actual Average Record
Temperature  
Mean Temperature 46 °F -  
Max Temperature 61 °F 51 °F 76 °F (2013)
Min Temperature 32 °F 32 °F 22 °F (2011)
Degree Days  
Heating Degree Days 18    
Moisture  
Dew Point 39 °F    
Average Humidity 72    
Maximum Humidity 100    
Minimum Humidity 39    
Precipitation  
Precipitation 0.00 in - - ()
Sea Level Pressure  
Sea Level Pressure 30.11 in    
Wind  
Wind Speed 2 mph (South)    
Max Wind Speed 10 mph    
Max Gust Speed -    
Visibility 10 miles    
Events      
Averages and records for this station are not official NWS values.
T = Trace of Precipitation, MM = Missing Value Source: NWS Daily Summary

Daily Weather History Graph

Daily Weather History Graph

Search for Another Location

Airport:

Trip Planner

Search our weather history database for the weather conditions in past years. The results will help you decide how hot, cold, wet, or windy it might be!

Date:

Astronomy

Jan. 13, 2014 Rise Set
Actual Time 7:24 AM EST 5:25 PM EST
Civil Twilight 6:56 AM EST 5:52 PM EST
Nautical Twilight 6:25 AM EST 6:24 PM EST
Astronomical Twilight 5:54 AM EST 6:54 PM EST
Moon 3:38 PM EST (1/13) 5:12 AM EST (1/13)
Length of Visible Light 10h 56m
Length of Day
10h 01m
Waxing Gibbous, 95% of the Moon is Illuminated
Jan 13
Waxing Gibbous
Jan 15
Full
Jan 24
Last Quarter
Jan 30
New
Feb 6
First Quarter

Hourly Weather History & Observations

Time (EST) Temp. Dew Point Humidity Pressure Visibility Wind Dir Wind Speed Gust Speed Precip Events Conditions
12:55 AM 36.9 °F 36.5 °F 99% 30.19 in 10.0 mi Calm Calm - N/A   Clear
1:55 AM 36.5 °F 36.3 °F 99% 30.19 in 10.0 mi Calm Calm - N/A   Clear
2:55 AM 35.8 °F 35.8 °F 100% 30.18 in 10.0 mi Calm Calm - N/A   Clear
3:55 AM 34.9 °F 34.9 °F 100% 30.17 in 10.0 mi Calm Calm - N/A   Clear
4:55 AM 34.5 °F 34.5 °F 100% 30.17 in 10.0 mi Calm Calm - N/A   Clear
5:55 AM 33.4 °F 33.4 °F 100% 30.17 in 10.0 mi Calm Calm - N/A   Clear
6:55 AM 32.9 °F 32.9 °F 100% 30.19 in 10.0 mi Calm Calm - N/A   Clear
7:55 AM 33.4 °F 33.4 °F 100% 30.18 in 10.0 mi Calm Calm - N/A   Clear
8:55 AM 41.2 °F - N/A% 30.20 in 10.0 mi Calm Calm - N/A   Clear
9:55 AM 50.0 °F 39.0 °F 66% 30.19 in 10.0 mi Variable 3.5 mph - N/A   Clear
10:55 AM 55.4 °F 39.2 °F 54% 30.18 in 10.0 mi South 5.8 mph - N/A   Clear
11:55 AM 59.0 °F 37.4 °F 45% 30.13 in 10.0 mi SW 10.4 mph - N/A   Clear
12:05 PM 59.0 °F 37.4 °F 45% 30.13 in 10.0 mi SW 10.4 mph - N/A   Clear
12:55 PM 60.3 °F 37.0 °F 42% 30.11 in 10.0 mi SSW 9.2 mph - N/A   Clear
1:55 PM 61.3 °F 36.3 °F 39% 30.08 in 10.0 mi South 10.4 mph - N/A   Clear
2:55 PM 61.0 °F 35.6 °F 39% 30.06 in 10.0 mi South 10.4 mph - N/A   Clear
3:55 PM 60.1 °F 35.2 °F 39% 30.05 in 10.0 mi South 8.1 mph - N/A   Clear
4:55 PM 59.2 °F 38.5 °F 46% 30.04 in 10.0 mi South 6.9 mph - N/A   Clear
5:55 PM 56.5 °F 40.6 °F 55% 30.02 in 10.0 mi South 3.5 mph - N/A   Clear
6:55 PM 53.4 °F 42.3 °F 66% 30.03 in 10.0 mi Calm Calm - N/A   Scattered Clouds
7:55 PM 51.8 °F 45.0 °F 77% 30.02 in 10.0 mi Calm Calm - N/A   Overcast
8:55 PM 50.0 °F 45.7 °F 85% 30.02 in 10.0 mi Calm Calm - N/A   Scattered Clouds
9:55 PM 51.1 °F 45.7 °F 82% 30.01 in 10.0 mi Calm Calm - N/A   Scattered Clouds
10:55 PM 55.2 °F 47.1 °F 74% 29.99 in 10.0 mi South 8.1 mph - N/A   Mostly Cloudy
11:55 PM 53.8 °F 47.1 °F 78% 29.97 in 10.0 mi Calm Calm - N/A   Clear